Hourly Data Report for October 21, 2013

All times are specified in Local Standard Time (LST). Add 1 hour to adjust for Daylight Saving Time where and when it is observed.

ARVIAT A
NUNAVUT

61°05'38.000" N
94°04'18.000" W
10.40 m
2300427
71174
YEK

Download Data

Hourly Data (October 2013)
Hourly Data Report for October 21, 2013
Temp Definition
°C
Dew Point Temp Definition
°C
Rel Hum Definition
%
Wind Dir Definition
10's deg

Wind Spd Definition
km/h
Visibility Definition
km
Stn Press Definition
kPa
Hmdx Definition


Wind Chill Definition


Weather Definition


TIME
00:00 Legend Double Dagger -1.6 -1.7 99 1 22 4.8 101.62   -8 LegendNANA
01:00 Legend Double Dagger -2.4 -3.0 96 36 30 12.9 101.62   -10 LegendNANA
02:00 Legend Double Dagger -2.8 -3.5 95 36 33 16.1 101.64   -10 LegendNANA
03:00 Legend Double Dagger -3.3 -3.9 96 35 30 16.1 101.63   -11 LegendNANA
04:00 Legend Double Dagger -3.9 -4.2 98 35 28 12.9 101.64   -11 LegendNANA
05:00 Legend Double Dagger -5.0 -5.1 99 35 24 9.7 101.63   -12 LegendNANA
06:00 Legend Double Dagger -7.2 -7.3 99 35 24 6.4 101.63   -15 LegendNANA
07:00 Legend Double Dagger -6.2 -6.3 99 34 30 3.2 101.61   -15 LegendNANA
08:00 Legend Double Dagger -6.3 -6.6 98 35 32 16.1 101.60   -15 LegendNANA
09:00 Legend Double Dagger -4.7 -4.8 99 1 33 4.8 101.57   -13 LegendNANA
10:00 Legend Double Dagger -4.2 -4.5 98 36 35 16.1 101.55   -13 LegendNANA
11:00 Legend Double Dagger -4.0 -4.4 97 36 28 9.7 101.56   -11 LegendNANA
12:00 Legend Double Dagger -4.2 -5.2 93 36 33 16.1 101.53   -12 LegendNANA
13:00 Legend Double Dagger -4.0 -4.8 94 35 32 4.8 101.50   -12 LegendNANA
14:00 Legend Double Dagger -3.9 -4.7 94 35 33 12.9 101.49   -12 LegendNANA
15:00 Legend Double Dagger -3.9 -4.7 94 35 35 16.1 101.49   -12 LegendNANA
16:00 Legend Double Dagger -3.8 -4.5 95 35 35 9.7 101.49   -12 LegendNANA
17:00 Legend Double Dagger -3.8 -4.4 96 35 35 6.4 101.48   -12 LegendNANA
18:00 Legend Double Dagger -3.9 -4.5 96 36 30 3.2 101.48   -12 LegendNANA
19:00 Legend Double Dagger -4.0 -4.6 96 35 35 3.2 101.49   -12 LegendNANA
20:00 Legend Double Dagger -4.0 -4.6 96 36 33 4.8 101.46   -12 LegendNANA
21:00 Legend Double Dagger -4.1 -4.5 97 35 33 9.7 101.44   -12 LegendNANA
22:00 Legend Double Dagger -4.1 -4.5 97 36 33 6.4 101.45   -12 LegendNANA
23:00 Legend Double Dagger -4.6 -5.3 95 35 39 4.8 101.45   -13 LegendNANA

Notes on Data Quality.

Legend

  • E = Estimated
  • M = Missing
  • NA = Not Available
  • ‡ = Partner data that is not subject to review by the National Climate Archives
Date modified: